Location: Carrer del Canonge
(41.4901°N, 2.2931°E)
Time: 06:17:35
(UTC+00:00)

Okean 1 Rocket - Pass Details

Date: 18 September 2020
Orbit: 605 x 635 km, 82.5° (Epoch: 26 October)

Event Time Altitude Azimuth Distance (km) Brightness Sun altitude
Exits shadow 19:51:18 34° 43° (NE) 1,061 4.0 -22.1°
Drops below altitude 10° 19:54:07 10° 20° (NNE) 2,030 5.7 -22.6°
Sets 19:56:26 0° 14° (NNE) 2,943 6.7 -23.0°
